This is the latest recevied weather packets stored in our database for station/object F4FEB-14. If no packets are shown the sender has not sent any weather packets the latest 1 day(s).
| Time | Temp. | Humidity | Pressure | Rain* | Wind** | Luminosity | Snow |
|---|---|---|---|---|---|---|---|
| 1777977878 | 14.44° C | 100% | 1010.8 hPa | 0 mm | 0.45 m/s, 221° | - | - |
| 1777977568 | 14.44° C | 100% | 1010.9 hPa | 0 mm | 0.45 m/s, 247° | - | - |
| 1777977267 | 15° C | 100% | 1010.8 hPa | 0 mm | 0.89 m/s, 178° | - | - |
| 1777976061 | 13.89° C | 100% | 1011 hPa | 0 mm | 0.89 m/s, 254° | - | - |
| 1777976060 | 13.89° C | 100% | 1011 hPa | 0 mm | 0.89 m/s, 254° | - | - |
| 1777975457 | 13.33° C | 100% | 1011 hPa | 0.25 mm | 0.89 m/s, 239° | - | - |
| 1777975155 | 13.89° C | 100% | 1010.9 hPa | 0 mm | 0.45 m/s, 247° | - | - |
| 1777974855 | 14.44° C | 100% | 1010.9 hPa | 0 mm | 1.34 m/s, 279° | - | - |
| 1777974554 | 14.44° C | 100% | 1010.8 hPa | 0 mm | 1.34 m/s, 259° | - | - |
| 1777974251 | 14.44° C | 100% | 1010.8 hPa | 0 mm | 0.89 m/s, 262° | - | - |
| 1777973949 | 14.44° C | 100% | 1010.8 hPa | 0 mm | 0.89 m/s, 273° | - | - |
| 1777973646 | 14.44° C | 100% | 1010.9 hPa | 0 mm | 1.34 m/s, 239° | - | - |
| 1777973343 | 14.44° C | 100% | 1010.7 hPa | 0 mm | 0.89 m/s, 238° | - | - |
| 1777972737 | 15.56° C | 100% | 1010.7 hPa | 0 mm | 0.89 m/s, 296° | - | - |
| 1777972436 | 15.56° C | 100% | 1010.7 hPa | 0 mm | 0.89 m/s, 255° | - | - |
| 1777972134 | 15.56° C | 100% | 1010.6 hPa | 0 mm | 0.45 m/s, 264° | - | - |
| 1777971833 | 15.56° C | 100% | 1010.7 hPa | 0 mm | 0.45 m/s, 156° | - | - |
| 1777971531 | 15.56° C | 100% | 1010.6 hPa | 0 mm | 0.45 m/s, 231° | - | - |
| 1777971230 | 15.56° C | 100% | 1010.6 hPa | 0 mm | 0.45 m/s, 257° | - | - |
| 1777970929 | 15° C | 100% | 1010.6 hPa | 0 mm | 0.45 m/s, 252° | - | - |
| 1777970628 | 15° C | 100% | 1010.6 hPa | 0 mm | 1.34 m/s, 174° | - | - |
| 1777970327 | 15° C | 100% | 1010.6 hPa | 0 mm | 0.89 m/s, 161° | - | - |
| 1777970024 | 15° C | 100% | 1010.5 hPa | 0 mm | 0.89 m/s, 168° | - | - |
| 1777969723 | 15° C | 100% | 1010.4 hPa | 0 mm | 0.89 m/s, 149° | - | - |
| 1777969420 | 14.44° C | 100% | 1010.5 hPa | 0 mm | 0.45 m/s, 124° | - | - |
* Rain latest hour (hover to see other rain measurements)
** Current wind speed in m/s (hover to see current wind gust speed)